Change the Weather History Date:

Tuesday, September 25, 2012

  Actual Average Record
Temperature  
Mean Temperature 66 °F 69 °F  
Max Temperature 79 °F 78 °F 92 °F (1961)
Min Temperature 53 °F 59 °F 45 °F (1937)
Degree Days  
Heating Degree Days 0 1  
Month to date heating degree days 5  
Since 1 July heating degree days 5  
Cooling Degree Days 0 4  
Month to date cooling degree days 197  
Year to date cooling degree days 1523  
Growing Degree Days 16 (Base 50)    
Moisture  
Dew Point 52 °F    
Average Humidity 67    
Maximum Humidity 83    
Minimum Humidity 43    
Precipitation  
Precipitation 0.00 in 0.16 in 2.27 in (1997)
Month to date precipitation 3.90  
Year to date precipitation 40.15  
Sea Level Pressure  
Sea Level Pressure 30.21 in    
Wind  
Wind Speed 3 mph (ENE)    
Max Wind Speed 6 mph    
Max Gust Speed -    
Visibility 10 miles    
Events      
T = Trace of Precipitation, MM = Missing Value Source: NWS Daily Summary

Daily Weather History Graph

Daily Weather History Graph

Search for Another Location

Airport or City:

Trip Planner

Search our weather history database for the weather conditions in past years. The results will help you decide how hot, cold, wet, or windy it might be!

Date:

Astronomy

Sep. 25, 2012 Rise Set
Actual Time 7:25 AM EDT 7:27 PM EDT
Civil Twilight 7:00 AM EDT 7:52 PM EDT
Nautical Twilight 6:31 AM EDT 8:21 PM EDT
Astronomical Twilight 6:02 AM EDT 8:50 PM EDT
Moon 4:42 PM EDT (9/25) 2:57 AM EDT (9/25)
Length of Visible Light 12h 51m
Length of Day
12h 01m
Waxing Gibbous, 80% of the Moon is Illuminated
Sep 25
Waxing Gibbous
Sep 29
Full
Oct 8
Last Quarter
Oct 15
New
Oct 21
First Quarter

Hourly Weather History & Observations

Time (EDT) Temp. Dew Point Humidity Pressure Visibility Wind Dir Wind Speed Gust Speed Precip Events Conditions
12:53 AM 55.9 °F 46.9 °F 72% 30.19 in 10.0 mi NE 3.5 mph - N/A   Clear
1:53 AM 55.9 °F 46.9 °F 72% 30.19 in 10.0 mi NE 3.5 mph - N/A   Clear
2:53 AM 55.0 °F 46.0 °F 72% 30.19 in 10.0 mi Calm Calm - N/A   Clear
3:53 AM 54.0 °F 46.9 °F 77% 30.19 in 10.0 mi NNE 4.6 mph - N/A   Clear
4:53 AM 54.0 °F 46.9 °F 77% 30.19 in 10.0 mi NE 3.5 mph - N/A   Clear
5:53 AM 53.1 °F 46.0 °F 77% 30.19 in 10.0 mi Calm Calm - N/A   Clear
6:51 AM 53.6 °F 46.4 °F 77% 30.23 in 10.0 mi NNE 3.5 mph - N/A   Mostly Cloudy
6:53 AM 53.1 °F 46.9 °F 80% 30.21 in 10.0 mi NNE 3.5 mph - N/A   Mostly Cloudy
7:53 AM 54.0 °F 48.9 °F 83% 30.22 in 10.0 mi East 3.5 mph - N/A   Overcast
8:36 AM 57.2 °F 48.2 °F 72% 30.24 in 10.0 mi NE 3.5 mph - N/A   Partly Cloudy
8:53 AM 59.0 °F 50.0 °F 72% 30.22 in 10.0 mi NE 3.5 mph - N/A   Scattered Clouds
9:16 AM 60.8 °F 51.8 °F 72% 30.24 in 10.0 mi NNE 3.5 mph - N/A   Mostly Cloudy
9:26 AM 62.6 °F 51.8 °F 68% 30.24 in 10.0 mi NE 3.5 mph - N/A   Scattered Clouds
9:53 AM 63.0 °F 52.0 °F 67% 30.23 in 10.0 mi NE 4.6 mph - N/A   Scattered Clouds
10:01 AM 64.4 °F 51.8 °F 64% 30.25 in 10.0 mi East 4.6 mph - N/A   Mostly Cloudy
10:53 AM 66.0 °F 55.0 °F 68% 30.25 in 10.0 mi Calm Calm - N/A   Overcast
11:25 AM 69.8 °F 57.2 °F 64% 30.26 in 10.0 mi Calm Calm - N/A   Scattered Clouds
11:53 AM 69.1 °F 57.0 °F 65% 30.24 in 10.0 mi Calm Calm - N/A   Clear
12:53 PM 72.0 °F 55.9 °F 57% 30.23 in 10.0 mi South 5.8 mph - N/A   Clear
1:53 PM 73.9 °F 54.0 °F 50% 30.21 in 10.0 mi Calm Calm - N/A   Clear
3:53 PM 78.1 °F 54.0 °F 43% 30.18 in 10.0 mi Variable 4.6 mph - N/A   Clear
4:53 PM 77.0 °F 54.0 °F 45% 30.17 in 10.0 mi Calm Calm - N/A   Clear
5:53 PM 75.9 °F 55.9 °F 50% 30.18 in 10.0 mi SE 5.8 mph - N/A   Clear
6:53 PM 73.0 °F 57.0 °F 57% 30.17 in 10.0 mi SSE 4.6 mph - N/A   Clear
7:53 PM 70.0 °F 55.9 °F 61% 30.18 in 10.0 mi SE 3.5 mph - N/A   Clear
8:53 PM 69.1 °F 57.0 °F 65% 30.19 in 10.0 mi Calm Calm - N/A   Clear
9:53 PM 68.0 °F 57.0 °F 68% 30.19 in 10.0 mi Calm Calm - N/A   Clear
10:53 PM 66.0 °F 57.0 °F 73% 30.19 in 10.0 mi Calm Calm - N/A   Clear
11:53 PM 64.0 °F 57.0 °F 78% 30.20 in 10.0 mi Calm Calm - N/A   Clear